Content
SEND FEEDBACK

Daily
Averages
Monthly
Summary
Germany

BERLIN, GERMANY


Home > Europe > Germany
Elevation: 157 feet     Latitude: 52 23N     Longitude: 013 31E

WEATHER
 
SELECT A DAY
Number of Records: 253,187;   Date Range: 7/3/96 - 9/21/14
 
SHARE

PRINT THIS DATA

[ ← Previous Day ]
WEATHER ALMANAC - NOVEMBER 29, 2013
[ Next Day → ]
[ °C ]   °F
Weather ElementAverageHighLow
Temperature39.9 °F43 °F (1:00 am)35.6 °F (4:20 am)
Dewpoint37.1 °F40 °F (1:00 pm)33 °F (8:00 am)
Humidity88.4 %100 % (5:20 am)69 % (1:00 am)
Barometer30.00 in30.23 in (1:00 am)29.65 in (9:20 pm)
Wind Speed13.5 mph23 mph (5:50 pm)
Weather ElementAverage
Visibility7.3 mi
Wind DirectionWSW (243.2 °)

Weather ElementTotal
Precipitation---
Heating Degree Days25.7 (Base 65)
Averaged from 71 records on November 29, 2013
WEATHER CONDITIONS BREAKOUT
WIND DIRECTION BREAKOUT
WEATHER BY HOUR - NOVEMBER 29, 2013
[ °C ]   °F
Local TimeTemperatureDewpointHumidityBarometerVisibilityWind DirectionWind SpeedGust SpeedPrecipitationEventsConditions
12:20 AM42.8 °F37.4 °F81 %30.21 in6.2 miWNW (290°)17.3 mphMostly Cloudy
12:50 AM42.8 °F37.4 °F81 %30.21 in6.2 miWest (280°)15.0 mphLight Drizzle
1:00 AM43.0 °F36.0 °F69 %30.23 in12.0 miWNW (290°)13.4 mphRainLight Drizzle
1:20 AM41.0 °F37.4 °F87 %30.21 in6.2 miWNW (290°)13.8 mphLight Drizzle
1:50 AM41.0 °F37.4 °F87 %30.21 in6.2 miWNW (300°)11.5 mphRainLight Rain
2:00 AM41.0 °F38.0 °F84 %30.23 in11.0 miWNW (300°)11.2 mphRainLight Rain
2:20 AM41.0 °F37.4 °F87 %30.21 in6.2 miWNW (290°)9.2 mphMostly Cloudy
2:50 AM39.2 °F37.4 °F93 %30.21 in6.2 miWest (280°)10.4 mphScattered Clouds
3:00 AM40.0 °F36.0 °F82 %30.23 in12.0 miWest (280°)11.2 mphRainLight Rain
3:20 AM37.4 °F35.6 °F93 %30.21 in6.2 miWest (270°)6.9 mphScattered Clouds
3:50 AM37.4 °F35.6 °F93 %30.21 in6.2 miWest (270°)6.9 mphScattered Clouds
4:00 AM37.0 °F35.0 °F87 %30.23 in16.0 miWest (270°)6.7 mphPartly Cloudy
4:20 AM35.6 °F33.8 °F93 %30.21 in6.2 miWest (270°)8.1 mphScattered Clouds
4:50 AM35.6 °F33.8 °F93 %30.21 in6.2 miWest (270°)8.1 mphMostly Cloudy
5:00 AM36.0 °F34.0 °F89 %30.22 in16.0 miWest (270°)6.7 mphMostly Cloudy
5:20 AM35.6 °F35.6 °F100 %30.21 in6.2 miWSW (250°)6.9 mphMostly Cloudy
5:50 AM37.4 °F35.6 °F93 %30.18 in6.2 miWest (270°)11.5 mphMostly Cloudy
6:00 AM38.0 °F35.0 °F87 %30.22 in16.0 miWest (270°)8.9 mphMostly Cloudy
6:20 AM39.2 °F35.6 °F87 %30.18 in6.2 miWest (270°)10.4 mphMostly Cloudy
6:50 AM39.2 °F35.6 °F87 %30.18 in6.2 miWest (260°)9.2 mphMostly Cloudy
7:00 AM38.0 °F35.0 °F83 %30.22 in16.0 miWest (260°)8.9 mphPartly Cloudy
7:20 AM37.4 °F33.8 °F87 %30.18 in6.2 miWSW (250°)6.9 mphMostly Cloudy
7:50 AM37.4 °F33.8 °F87 %30.18 in6.2 miWSW (240°)8.1 mphMostly Cloudy
8:00 AM36.0 °F33.0 °F84 %30.20 in12.0 miWSW (240°)8.9 mphMostly Cloudy
8:20 AM37.4 °F33.8 °F87 %30.18 in6.2 miWSW (250°)8.1 mphScattered Clouds
8:50 AM37.4 °F33.8 °F87 %30.15 in6.2 miWSW (240°)6.9 mphScattered Clouds
9:00 AM37.0 °F34.0 °F84 %30.18 in12.0 miWSW (240°)6.7 mphPartly Cloudy
9:20 AM37.4 °F35.6 °F93 %30.15 in6.2 miWSW (250°)8.1 mphMostly Cloudy
9:50 AM41.0 °F37.4 °F87 %30.12 in6.2 miWSW (240°)9.2 mphMostly Cloudy
10:00 AM40.0 °F37.0 °F85 %30.16 in12.0 miWSW (240°)8.9 mphMostly Cloudy
10:20 AM41.0 °F39.2 °F93 %30.12 in6.2 miSW (230°)10.4 mphMostly Cloudy
10:50 AM41.0 °F39.2 °F93 %30.12 in6.2 miWSW (240°)12.7 mphMostly Cloudy
11:00 AM42.0 °F38.0 °F80 %30.13 in12.0 miWSW (240°)13.4 mphMostly Cloudy
11:20 AM42.8 °F39.2 °F87 %30.09 in6.2 miWSW (240°)11.5 mphMostly Cloudy
11:50 AM42.8 °F39.2 °F87 %30.06 in6.2 miWSW (240°)11.5 mphMostly Cloudy
12:00 PM43.0 °F39.0 °F81 %30.09 in12.0 miWSW (240°)11.2 mphOvercast
12:20 PM42.8 °F39.2 °F87 %30.04 in6.2 miWSW (240°)11.5 mphMostly Cloudy
12:50 PM41.0 °F39.2 °F93 %30.04 in3.1 miWSW (240°)13.8 mphLight Drizzle
1:00 PM42.0 °F40.0 °F89 %30.05 in3.0 miWSW (240°)13.4 mphRainLight Drizzle
1:20 PM42.8 °F39.2 °F87 %30.01 in6.2 miSW (220°)11.5 mphLight Drizzle
1:50 PM42.8 °F39.2 °F87 %29.98 in6.2 miSW (220°)12.7 mphMostly Cloudy
2:00 PM42.0 °F39.0 °F86 %29.99 in12.0 miSW (220°)13.4 mphRainLight Drizzle
2:20 PM41.0 °F39.2 °F93 %29.95 in3.1 miSW (230°)17.3 mphRainLight Rain
2:50 PM41.0 °F39.2 °F93 %29.95 in6.2 miSW (230°)15.0 mphRainLight Rain
3:00 PM42.0 °F39.0 °F86 %29.95 in7.0 miSW (230°)15.7 mphRainLight Rain
3:20 PM41.0 °F39.2 °F93 %29.92 in6.2 miSW (230°)15.0 mphMostly Cloudy
3:50 PM41.0 °F37.4 °F87 %29.89 in6.2 miSW (220°)15.0 mphMostly Cloudy
4:00 PM41.0 °F38.0 °F84 %29.90 in11.0 miSW (220°)13.4 mphRainLight Rain
4:20 PM41.0 °F37.4 °F87 %29.86 in6.2 miSSW (210°)16.1 mphRainLight Rain
4:50 PM41.0 °F37.4 °F87 %29.83 in5.0 miSSW (210°)16.1 mphRainRain
5:00 PM41.0 °F38.0 °F83 %29.85 in5.0 miSSW (210°)15.7 mphRainRain
5:20 PM39.2 °F37.4 °F93 %29.80 in5.0 miSW (220°)20.7 mphRainLight Rain
5:50 PM39.2 °F37.4 °F93 %29.77 in5.0 miSSW (210°)23.0 mphRainLight Rain
6:00 PM39.0 °F37.0 °F88 %29.79 in5.0 miSSW (210°)22.4 mphRainLight Rain
6:20 PM39.2 °F37.4 °F93 %29.74 in5.0 miSSW (210°)19.6 mphRainRain
6:50 PM39.2 °F37.4 °F93 %29.74 in5.0 miSSW (210°)19.6 mphRainRain
7:00 PM39.0 °F37.0 °F88 %29.75 in5.0 miSSW (210°)20.1 mphRainRain
7:20 PM39.2 °F37.4 °F93 %29.71 in5.0 miSSW (210°)20.7 mphRainLight Rain
7:50 PM39.2 °F37.4 °F93 %29.68 in6.2 miSSW (210°)21.9 mphRainLight Rain
8:00 PM39.0 °F37.0 °F90 %29.71 in8.0 miSSW (210°)20.1 mphRainLight Rain
8:20 PM39.2 °F37.4 °F93 %29.68 in6.2 miSW (220°)20.7 mphRainLight Rain
8:50 PM41.0 °F37.4 °F87 %29.68 in6.2 miSW (220°)19.6 mphMostly Cloudy
9:00 PM40.0 °F37.0 °F87 %29.69 in8.0 miSW (220°)20.1 mphRainLight Rain
9:20 PM41.0 °F37.4 °F87 %29.65 in6.2 miSW (230°)18.4 mphRainLight Rain
9:50 PM41.0 °F39.2 °F93 %29.65 in6.2 miSW (230°)17.3 mphRainLight Rain
10:00 PM41.0 °F38.0 °F85 %29.68 in7.0 miSW (230°)17.9 mphRainLight Rain
10:20 PM41.0 °F39.2 °F93 %29.65 in6.2 miWSW (240°)15.0 mphRainLight Rain
10:50 PM41.0 °F39.2 °F93 %29.65 in6.2 miWSW (240°)18.4 mphRainLight Rain
11:00 PM41.0 °F39.0 °F88 %29.68 in6.0 miWSW (240°)17.9 mphRainLight Rain
11:20 PM41.0 °F39.2 °F93 %29.68 in6.2 miWSW (250°)17.3 mphRainLight Rain
11:50 PM39.2 °F37.4 °F93 %29.68 in5.6 miWest (260°)17.3 mphRainRain
Hourly data recorded from EDDB, located miles away from Berlin, Germany







STORIES FROM OUR PARTNERS